Volver al catálogo

CRYOSAT 2

ActivoCienciaPO
NORAD 36508·PAYLOAD·🇪🇺 EU

Lanzado Apr 8, 2010 desde Baikonur Cosmodrome

Loading…

Próximos Pases (próximas 24 horas)

TLE

ActualizadoSource: CelesTrak SupGP

Época: Sep 14, 2026, 00:00 UTC

1 36508C 10013A   26257.00000000  .00000047  00000+0  11674-4 0  2579
2 36508  92.0271 298.8696 0002414  93.5270 326.8048 14.51904427    19

Sigue CRYOSAT 2 en tiempo real con AllMySat

Download on the App Store